Powrót do katalogu

STARLINK-1482

AktywnyŁącznośćVLEO
NORAD 45773·PAYLOAD·🇺🇸 United States

Wystrzelony Jun 13, 2020 z Cape Canaveral Space Force Station

Loading…

Następne Przeloty (najbliższe 24 godziny)

TLE

ŚwieżeSource: CelesTrak SupGP

Epoka: Sep 14, 2026, 21:16 UTC

1 45773C 20038AV  26257.88659722  .00045962  00000+0  92855-3 0  2572
2 45773  53.1541  21.4566 0002035 324.7978   2.0037 15.45874252    17

Śledź STARLINK-1482 w czasie rzeczywistym z AllMySat

Download on the App Store